sat.trackr.live / text

‹ back to catalog

STARLINK-35791

NORAD 66896 · 2025-283U

PAYLOAD ACTIVE UNKNOWN

§ Identity

Operator
Country
US
Launch date
2025-12-04
Launch site
AFWTR
Launch vehicle
Mass (kg)
RCS (m²)

Purposes: comms

External: N2YO · Heavens-Above · Gunter

§ Orbital elements

Epoch: 2026-09-20T05:05:46.595904Z

Period
93.85 min
Inclination
53.1587°
Eccentricity
0.0001740
Mean motion
15.34403217 rev/d
Perigee alt
461.5 km
Apogee alt
463.9 km
Semi-major
6,840.8 km
B*
2.5199e-4
RAAN
198.6971°
Arg perigee
83.5558°
Mean anomaly
276.5643°
Rev number
4,565

§ Raw data

STARLINK-357911 66896U 25283U   26263.21234486  .00008148  00000+0  25199-3 0  99932 66896  53.1587 198.6971 0001740  83.5558 276.5643 15.34403217 45656

JSON: /api/v1/satellites/66896 · /tle

For live sub-satellite position, see the globe view (requires WebGL).

§ Visibility from observer

Set your observer location to see the next 7 days of passes ≥ 10°. The values pass through the URL so the page stays shareable.

No JS? Fill the form by hand. The geolocation button needs JavaScript.